Regional Weather Roundup
Issued by NWS

Home | Current Version | Previous Version | Text Only | Print | Product List | Glossary Off
Versions: 1 2 3 4 5 6 7 8 9 10 11 12 13 14 15 16 17 18 19 20 21 22 23 24 25 26 27

000
ASUS45 KCYS 221210
RWRWY

WYOMING REGIONAL WEATHER ROUNDUP
NATIONAL WEATHER SERVICE CHEYENNE WY
600 AM MDT SAT APR 22 2017

NOTE:  "FAIR" INDICATES FEW OR NO CLOUDS BELOW 12,000 FEET
WITH NO SIGNIFICANT WEATHER AND/OR OBSTRUCTIONS TO VISIBILITY.

WYZ001-221300-
YELLOWSTONE NATIONAL PARK

CITY           SKY/WX    TMP DP  RH WIND       PRES   REMARKS
LK YELLOWSTONE   N/A     20  19  96 CALM      30.30R
6HR MIN TEMP:  17; 6HR MAX TEMP:  23;

W YELLOWSTONE  NOT AVBL

$$
WYZ002>013-054>058-071-098>099-221300-
NORTHERN WYOMING

CITY           SKY/WX    TMP DP  RH WIND       PRES   REMARKS
JACKSON        FAIR      25  25 100 N7        30.28R WCI  17
CODY           CLOUDY    33  32  96 CALM      30.26R
GREYBULL       CLOUDY    38  34  85 CALM      30.24R
6HR MIN TEMP:  37; 6HR MAX TEMP:  42;

WORLAND        CLOUDY    40  38  93 CALM      30.25R
6HR MIN TEMP:  40; 6HR MAX TEMP:  40; 6HR PCP:  0.04;

SHERIDAN       MOCLDY    39  37  92 NW7       30.25R WCI  34
6HR MIN TEMP:  39; 6HR MAX TEMP:  41; 6HR PCP:  0.01;

BUFFALO        CLOUDY    39  35  86 NW8       30.24R WCI  33
6HR MIN TEMP:  38; 6HR MAX TEMP:  39; 6HR PCP:  0.01;

GILLETTE       CLOUDY    41  40  96 N6        30.23S
6HR MIN TEMP:  41; 6HR MAX TEMP:  43; 6HR PCP: TRACE;

HULETT         FAIR      36  36 100 S5        30.25S WCI  32
NEWCASTLE      FAIR      37  36  93 E6        30.25R WCI  33

$$
WYZ014>020-022>026-101>103-221300-
CENTRAL WYOMING

CITY           SKY/WX    TMP DP  RH WIND       PRES   REMARKS
BIG PINEY      FAIR      21  18  88 E5        30.27R WCI  15
6HR MIN TEMP:  21; 6HR MAX TEMP:  29;

PINEDALE       CLOUDY    28  27  93 CALM      30.27S
DUBOIS         FAIR      25  19  80 NW10      30.23R WCI  15
LANDER         CLOUDY    36  34  92 CALM      30.23R
6HR MIN TEMP:  35; 6HR MAX TEMP:  37; 6HR PCP: TRACE;

RIVERTON       CLOUDY    37  35  92 CALM      30.25R
6HR MIN TEMP:  35; 6HR MAX TEMP:  37;

CASPER         CLOUDY    36  36 100 W10       30.22R WCI  28
6HR MIN TEMP:  36; 6HR MAX TEMP:  38; 6HR PCP:  0.02;

DOUGLAS        CLOUDY    34  33  96 CALM      30.24R FOG
6HR MIN TEMP:  33; 6HR MAX TEMP:  39; 6HR PCP: TRACE;


$$
WYZ021-027>030-104>119-221300-
SOUTHERN WYOMING

CITY           SKY/WX    TMP DP  RH WIND       PRES   REMARKS
EVANSTON       FAIR      25  21  85 SW5       30.26S WCI  19
6HR MIN TEMP:  25; 6HR MAX TEMP:  31;

KEMMERER         N/A     25  23  93 N5        30.26S WCI  19
FORT BRIDGER   FAIR      28  25  91 W6        30.29S WCI  21
ROCK SPRINGS   FAIR      29  22  75 S7        30.27R WCI  22
6HR MIN TEMP:  28; 6HR MAX TEMP:  37;

DIXON            N/A     28  27  94 CALM      30.30R
RAWLINS        CLOUDY    31  27  85 NW5       30.25R WCI  26
6HR MIN TEMP:  27; 6HR MAX TEMP:  33;

SARATOGA       CLOUDY    30  30 100 CALM      30.26R
LARAMIE        CLOUDY    25  24  96 NE5       30.23R WCI  19
6HR MIN TEMP:  24; 6HR MAX TEMP:  31; 6HR PCP: TRACE;

CHEYENNE       CLOUDY    33  32  96 SW9       30.24R WCI  25
6HR MIN TEMP:  33; 6HR MAX TEMP:  34; 6HR PCP:  0.08;

TORRINGTON     FAIR      37  36  96 SE6       30.24R WCI  32
6HR MIN TEMP:  37; 6HR MAX TEMP:  42; 6HR PCP: TRACE;

PINE BLUFFS    CLOUDY    34  34 100 SE5       30.26R WCI  30

$$




USA.gov is the U.S. government's official web portal to all federal, state and local government web resources and services.